Rockford, IL

1:39 AM CST on January 22, 2018 (GMT -0600)
Greater Rockford

Weather History for KRFD - October, 2011

Change the Weather History Date:

Friday, October 21, 2011

  Actual Average Record
Temperature  
Mean Temperature 45 °F 50 °F  
Max Temperature 57 °F 61 °F 87 °F (1947)
Min Temperature 33 °F 39 °F 22 °F (1952)
Degree Days  
Heating Degree Days 20 15  
Month to date heating degree days 182 251  
Since 1 July heating degree days 348 382  
Cooling Degree Days 0 0  
Month to date cooling degree days 14 8  
Year to date cooling degree days 1019 819  
Moisture  
Dew Point 31 °F    
Average Humidity 58    
Maximum Humidity 82    
Minimum Humidity 33    
Precipitation  
Precipitation 0.00 in 0.09 in 1.32 in (1936)
Month to date precipitation 1.27 1.81  
Year to date precipitation 32.64 30.82  
Snow  
Snow 0.00 in 0.00 in T in (1976)
Month to date snowfall 0.0 0.0  
Since 1 July snowfall 0.0 0.0  
Since 1 September snowfall 0.0 0.0  
Snow Depth -    
Sea Level Pressure  
Sea Level Pressure 30.07 in    
Wind  
Wind Speed 5 mph (WNW)    
Max Wind Speed 14 mph    
Max Gust Speed 17 mph    
Visibility 10 miles    
Events      
T = Trace of Precipitation, MM = Missing Value Source: NWS Daily Summary

Daily Weather History Graph

Daily Weather History Graph

Search for Another Location

Airport or City:

Trip Planner

Search our weather history database for the weather conditions in past years. The results will help you decide how hot, cold, wet, or windy it might be!

Date:

Astronomy

Oct. 21, 2011 Rise Set
Actual Time 7:15 AM CDT 6:05 PM CDT
Civil Twilight 6:47 AM CDT 6:34 PM CDT
Nautical Twilight 6:14 AM CDT 7:06 PM CDT
Astronomical Twilight 5:42 AM CDT 7:39 PM CDT
Moon 12:59 AM CDT (10/21) 2:55 PM CDT (10/21)
Length of Visible Light 11h 46m
Length of Day
10h 49m
Waning Crescent, 33% of the Moon is Illuminated
Oct 21
Waning Crescent
Oct 26
New
Nov 2
First Quarter
Nov 10
Full
Nov 18
Last Quarter

Hourly Weather History & Observations

Time (CDT) Temp. Windchill Dew Point Humidity Pressure Visibility Wind Dir Wind Speed Gust Speed Precip Events Conditions
12:54 AM 41.0 °F 39.0 °F 32.0 °F 70% 29.95 in 10.0 mi NW 3.5 mph - N/A   Partly Cloudy
1:54 AM 39.0 °F 36.8 °F 32.0 °F 76% 29.97 in 10.0 mi NW 3.5 mph - N/A   Clear
2:54 AM 39.0 °F 33.4 °F 32.0 °F 76% 29.99 in 10.0 mi NW 8.1 mph - N/A   Clear
3:54 AM 37.4 °F 32.1 °F 30.2 °F 75% 29.99 in 10.0 mi NNW 6.9 mph - N/A   Clear
4:54 AM 35.1 °F 31.0 °F 30.0 °F 82% 30.02 in 10.0 mi NNW 4.6 mph - N/A   Clear
5:54 AM 34.0 °F - 28.9 °F 82% 30.04 in 10.0 mi Calm Calm - N/A   Clear
6:54 AM 33.8 °F 28.6 °F 28.4 °F 81% 30.04 in 10.0 mi WNW 5.8 mph - N/A   Clear
7:54 AM 35.1 °F 31.0 °F 30.0 °F 82% 30.08 in 10.0 mi NW 4.6 mph - N/A   Clear
8:54 AM 39.0 °F 35.7 °F 32.0 °F 76% 30.11 in 10.0 mi NW 4.6 mph - N/A   Clear
9:54 AM 44.1 °F 41.5 °F 33.1 °F 65% 30.12 in 10.0 mi NW 4.6 mph - N/A   Clear
10:54 AM 48.0 °F - 33.1 °F 56% 30.12 in 10.0 mi North 9.2 mph - N/A   Clear
11:54 AM 51.1 °F - 32.0 °F 48% 30.12 in 10.0 mi WNW 9.2 mph - N/A   Partly Cloudy
12:54 PM 53.1 °F - 30.0 °F 41% 30.10 in 10.0 mi West 8.1 mph - N/A   Partly Cloudy
1:54 PM 55.0 °F - 30.0 °F 38% 30.08 in 10.0 mi West 6.9 mph - N/A   Scattered Clouds
2:54 PM 55.0 °F - 30.0 °F 38% 30.07 in 10.0 mi Variable 6.9 mph - N/A   Scattered Clouds
3:54 PM 57.0 °F - 28.9 °F 34% 30.07 in 10.0 mi Variable 6.9 mph - N/A   Scattered Clouds
4:54 PM 55.9 °F - 30.0 °F 37% 30.08 in 10.0 mi West 5.8 mph - N/A   Partly Cloudy
5:54 PM 52.0 °F - 30.9 °F 45% 30.10 in 10.0 mi WSW 3.5 mph - N/A   Partly Cloudy
6:54 PM 48.0 °F - 32.0 °F 54% 30.10 in 10.0 mi SSW 3.5 mph - N/A   Partly Cloudy
7:54 PM 44.1 °F 42.5 °F 32.0 °F 63% 30.10 in 10.0 mi South 3.5 mph - N/A   Partly Cloudy
8:54 PM 41.0 °F 39.0 °F 32.0 °F 70% 30.11 in 10.0 mi South 3.5 mph - N/A   Partly Cloudy
9:54 PM 39.0 °F 36.8 °F 33.1 °F 79% 30.10 in 10.0 mi South 3.5 mph - N/A   Clear
10:54 PM 39.0 °F 36.8 °F 30.9 °F 73% 30.10 in 10.0 mi South 3.5 mph - N/A   Clear
11:54 PM 37.0 °F - 30.9 °F 79% 30.09 in 10.0 mi Calm Calm - N/A   Partly Cloudy